Location: Ambon
(46.2585°N, 3.3232°E)
Time: 06:20:56
(UTC+00:00)

Daily predictions for brighter satellites

Satellite Brightness Start Highest point End
(mag) Time Altitude Azimuth Time Altitude Azimuth Time Altitude Azimuth
Cosmos 407 Rocket 3.5 19:17:31 10° SSW 19:22:50 83° ESE 19:28:08 10° NNE
SJ-6B 2.8 19:22:10 10° SSE 19:26:09 72° ENE 19:30:05 10° N
Cosmos 1862 3.7 19:22:57 10° SSW 19:26:59 74° W 19:31:04 10° N
Cosmos 1190 Rocket 4.0 19:21:47 10° SSW 19:27:02 74° ESE 19:32:22 10° NNE
deb Kosmos-1763 4.0 19:24:47 10° S 19:28:21 60° ESE 19:31:58 10° NNE
Cosmos 1140 Rocket 3.5 19:23:39 10° SSW 19:28:53 74° ESE 19:34:08 10° NNE
FALCON 9 DEB 4.2 19:26:06 10° W 19:29:29 47° NNW 19:32:53 10° NE
Resurs 1-3 4.1 19:27:09 10° SE 19:31:18 44° ENE 19:35:29 10° N
OBJECT-B 1.3 19:30:44 10° SE 19:33:51 42° ENE 19:37:00 10° N
Cosmos 1441 Rocket 3.6 19:30:28 10° SSW 19:34:12 68° WNW 19:37:57 10° N
IRIDIUM 106 4.3 19:29:25 10° S 19:34:38 82° E 19:39:53 10° N
Cosmos 1633 Rocket 3.4 19:32:42 10° SSE 19:36:55 47° E 19:41:10 10° NNE
Cosmos 1184 Rocket 3.6 19:34:49 10° SSE 19:37:47 32° E 19:40:46 10° NNE
SL-08 RB Rocket 4.2 19:34:29 10° S 19:39:07 68° W 19:43:47 10° NNW
Cosmos 921 Rocket 3.5 19:37:08 10° N 19:41:08 41° ENE 19:45:04 10° SE
Cosmos 2123 Rocket 4.2 19:36:25 10° N 19:42:33 58° ENE 19:48:43 10° SSE
Cosmos 2239 Rocket 4.4 19:36:43 10° S 19:42:49 77° E 19:49:01 10° N
Meteor 1-27 Rocket 4.0 19:41:55 10° NNW 19:47:54 85° W 19:53:50 10° S
Cosmos 1605 Rocket 4.4 19:46:14 10° SSE 19:51:52 41° E 19:57:31 10° NNE
ARGOS 4.4 19:48:08 10° SSW 19:53:11 41° W 19:58:17 10° NNW
Cosmos 1707 Rocket 3.8 19:49:34 10° NNW 19:53:54 72° W 19:58:11 10° S
CZ-2C R/B 2.6 19:49:33 10° NNE 19:54:47 88° WNW 20:00:03 10° SSW
NOSS 3-2 (A) 3.3 19:49:47 10° SSW 19:55:25 75° SE 20:01:54 10° NE
Cosmos 192 4.3 19:51:35 10° NNW 19:56:32 88° ENE 20:01:27 10° SSE
Cosmos 2219 Rocket 4.5 19:56:03 10° NNE 19:57:32 11° NNE 19:59:00 10° NE
USA 267 4.0 19:53:23 10° ENE 19:58:50 27° SE 20:04:14 10° S
SL-16 R/B 2.8 19:56:49 10° NNW 20:02:13 42° NE 20:06:27 16° ESE
SL-4 R/B 3.1 19:58:32 10° W 20:02:23 41° NNW 20:05:58 10° ENE
BREEZE-M DEB (TANK) 2.7 20:00:58 10° W 20:03:28 59° N 20:09:05 10° ENE
BREEZE-M DEB (TANK) 4.2 20:00:25 10° WNW 20:03:59 17° WSW 20:06:11 10° SSW
SL-27 R/B 3.7 20:04:28 19° ESE 20:05:14 20° E 20:07:46 10° NE
NOSS 3-2 (C) 3.4 20:00:37 10° SSW 20:06:08 56° ESE 20:12:25 10° NE
Cosmos 2242 Rocket 4.2 20:02:09 10° N 20:06:17 37° ENE 20:09:07 18° SE
Cosmos 1470 Rocket 3.7 20:02:26 10° S 20:06:44 54° E 20:11:00 10° NNE
Sich 1 4.3 20:03:20 10° SSW 20:07:36 46° WNW 20:11:53 10° N
Cosmos 2082 Rocket 2.8 20:05:10 10° SW 20:10:47 61° WNW 20:16:26 10° NNE
BREEZE-M DEB (TANK) 2.9 20:08:11 10° WNW 20:11:04 40° N 20:12:31 15° ENE
USA 186 4.3 20:11:37 10° WSW 20:12:12 11° W 20:12:47 10° WNW
Meteor 2-20 Rocket 4.5 20:09:06 10° N 20:15:18 87° E 20:21:27 10° S
Meteor 1-4 Rocket 3.6 20:14:34 10° NNW 20:17:52 42° W 20:21:09 10° SSW
ERS-1 Rocket 4.2 20:16:14 17° ESE 20:18:53 26° ENE 20:23:03 10° N
Cosmos 2322 Rocket 2.7 20:14:05 10° NNW 20:19:35 46° ENE 20:23:15 20° ESE
Cosmos 1862 Rocket 3.7 20:17:15 10° NNW 20:21:43 76° W 20:25:58 11° S
Cosmos 1850 Rocket 4.1 20:18:12 10° S 20:23:21 54° ESE 20:28:29 10° NNE
Meteor 1-25 Rocket 4.1 20:19:42 10° S 20:25:15 77° E 20:30:55 10° NNE
SPOT 1/Viking Rocket 4.0 20:23:32 21° SE 20:26:41 45° ENE 20:31:39 10° N
Cosmos 841 Rocket 4.2 20:22:13 10° N 20:27:08 39° ENE 20:29:56 22° ESE
USA 32 4.0 20:22:46 10° S 20:27:59 82° E 20:33:14 10° N
Cosmos 2360 Rocket 3.2 20:23:32 10° NNW 20:28:37 32° NE 20:31:48 19° ESE
USA 276 2.1 20:25:43 10° WNW 20:28:55 75° NNE 20:30:10 33° E
X-37B 0.9 20:26:27 10° W 20:29:30 48° SSW 20:30:22 36° SSE
Terra 3.4 20:27:56 17° E 20:29:48 21° ENE 20:33:19 10° NNE
Meteor 1-18 Rocket 4.2 20:24:28 10° N 20:30:02 67° ENE 20:33:52 20° SSE
ATLAS 3B R/B 3.2 20:25:36 10° S 20:31:21 33° ESE 20:37:08 10° NE
IGS 5A 3.6 20:29:39 26° SE 20:31:48 55° ENE 20:35:53 10° N
Cosmos 1238 Rocket 1.9 20:30:32 21° S 20:32:19 85° E 20:35:22 10° N
USA 234 4.0 20:29:00 11° E 20:34:57 46° NNE 20:41:08 10° NW
Cosmos 468 Rocket 4.0 20:30:55 10° NNW 20:36:15 87° WSW 20:39:42 22° SSE
CZ-2C R/B 4.3 20:31:51 10° N 20:36:21 57° WNW 20:40:44 10° SSW
Cosmos 1980 Rocket 3.5 20:32:20 10° NW 20:37:27 36° WSW 20:42:32 10° S
Cosmos 44 3.5 20:33:00 10° NNW 20:37:55 67° NE 20:40:36 28° SE
Resurs 01 Rocket 2.1 20:34:56 13° S 20:38:46 58° W 20:43:10 10° NNW
Iridium 4 Rocket 4.5 20:38:44 20° E 20:38:59 20° E 20:42:02 10° NNE
Lacrosse 5 2.0 20:34:06 10° NW 20:39:08 65° SW 20:41:50 27° SSE
Cosmos 1602 3.6 20:37:46 16° S 20:40:47 84° E 20:44:44 10° N
Cosmos 1447 Rocket 4.5 20:34:30 10° N 20:40:52 78° E 20:45:25 20° SSE
CARTOSAT-1 4.3 20:40:31 28° ESE 20:41:56 36° ENE 20:45:55 10° N
Cosmos 1153 Rocket 4.5 20:36:52 13° S 20:42:16 65° E 20:48:25 10° NNE
GP-B 3.3 20:40:29 10° N 20:44:55 74° W 20:48:37 15° S
Cosmos 1933 Rocket 3.6 20:42:59 11° S 20:47:15 81° W 20:51:44 10° N
Cosmos 405 Rocket 3.2 20:50:04 10° SSW 20:53:39 56° WNW 20:57:23 10° N
Spot 2 Rocket 3.4 20:51:17 27° SSE 20:54:11 90° WNW 20:59:19 10° NNW
COSMOS 2428 4.5 20:50:32 10° N 20:54:48 21° NE 20:57:48 14° E
Cosmos 1814 Rocket 4.3 20:49:46 10° NNW 20:54:54 53° ENE 20:56:56 34° ESE
USA 238 DEB 4.4 20:49:38 10° WSW 20:56:09 56° NW 21:02:59 10° NE
USA 238 4.4 20:49:43 10° WSW 20:56:15 56° NW 21:03:05 10° NE
Cosmos 1515 3.6 20:54:36 10° N 20:58:28 86° W 20:59:36 44° S
Cosmos 1869 Rocket 3.7 20:57:44 40° SE 20:58:56 54° E 21:03:18 10° NNE
CENTAUR R/B 2.7 20:53:16 10° SW 20:59:13 76° NW 21:06:22 10° NE
Okean 1-7 2.9 20:56:00 10° N 21:00:20 88° E 21:01:51 40° S
Cosmos 1741 Rocket 4.1 20:57:02 10° SSW 21:02:17 76° WNW 21:07:36 10° NNE
Cosmos 1437 Rocket 2.9 21:02:25 10° NNW 21:06:12 64° W 21:07:19 41° SSW
OBJECT-B 3.8 21:05:12 10° WSW 21:06:27 12° W 21:07:42 10° WNW
Cosmos 1763 Rocket 4.1 21:05:18 10° NNW 21:10:28 52° WSW 21:13:14 26° S
Cosmos 1703 Rocket 3.8 21:06:19 10° NNW 21:10:38 64° W 21:12:20 34° SSW
H-2A R/B 4.2 21:07:06 10° N 21:11:07 52° WNW 21:14:44 12° SW
Cosmos 1570 Rocket 4.0 21:07:38 10° NNW 21:13:00 89° WSW 21:14:58 41° SSE
Cosmos 2333 Rocket 3.4 21:08:01 10° NNW 21:13:07 31° NE 21:15:19 24° E
ATLAS 5 CENTAUR R/B 2.9 21:10:46 10° NNW 21:13:24 38° NE 21:14:58 29° E
Cosmos 2084 Rocket 4.3 21:09:24 10° WSW 21:13:29 49° NW 21:17:41 10° NNE
Landsat 7 4.4 21:15:20 28° SSW 21:17:38 53° W 21:22:18 10° NNW
SPOT 5 2.5 21:17:39 56° SE 21:18:27 72° ENE 21:22:53 10° N
SWARM A 4.3 21:15:35 10° N 21:18:54 75° W 21:18:54 75° W
Meteor 1-5 Rocket 4.3 21:18:36 35° S 21:21:14 72° E 21:27:07 10° NNE
Cosmos 2208 Rocket 3.9 21:19:14 10° NNW 21:24:30 85° WSW 21:25:57 49° SSE
Cosmos 1733 Rocket 4.0 21:29:41 34° ENE 21:29:41 34° ENE 21:33:02 10° NNE
ERBS 4.4 21:27:00 10° NNW 21:29:32 20° NNE 21:30:13 18° NE
Meteor 1-11 Rocket 3.8 21:31:46 49° SE 21:32:58 60° E 21:38:42 10° NNE
Lacrosse 4 Rocket 2.2 21:37:37 40° ENE 21:37:37 40° ENE 21:40:29 10° NE
Tsikada Rocket 4.3 21:31:07 10° N 21:37:18 52° ENE 21:38:46 44° ESE
Cosmos 2100 Rocket 4.0 21:36:57 28° SSW 21:40:19 75° W 21:46:30 10° N
USA 267 3.1 21:35:49 10° NE 21:42:24 88° SE 21:48:57 10° SW
SL-4 R/B 2.9 21:38:54 10° WNW 21:42:32 38° N 21:42:59 37° NNE
Meteor 2-4 Rocket 4.1 21:37:15 10° NNW 21:42:42 56° W 21:44:40 36° SSW
Cosmos 2219 Rocket 2.8 21:37:40 10° NNW 21:43:06 43° NE 21:44:23 38° E
Cosmos 540 Rocket 4.0 21:38:08 10° NNW 21:43:10 52° WSW 21:44:28 41° SSW
Cosmos 2173 Rocket 4.0 21:41:11 31° SSW 21:44:19 75° W 21:50:26 10° N
SL-16 R/B 3.4 21:41:09 10° NW 21:46:12 34° WSW 21:48:19 26° SW
Cosmos 1242 Rocket 3.6 21:48:17 10° N 21:50:53 41° NNE 21:50:53 41° NNE
SAR-Lupe-2 4.4 21:50:46 10° N 21:54:04 48° WNW 21:54:04 48° WNW
Meteor 1-23 Rocket 4.2 21:50:37 10° N 21:56:26 68° ENE 21:57:15 60° ESE
Cosmos 2322 3.6 21:50:55 10° NNW 21:56:36 74° ENE 21:57:25 63° ESE
Cosmos 1725 Rocket 3.9 21:55:18 53° S 21:56:52 79° E 22:03:13 10° N
Cosmos 1459 Rocket 4.4 21:53:46 28° SSW 21:57:14 62° WNW 22:03:34 10° N
ERS-1 Rocket 3.8 21:56:14 37° SW 21:57:27 44° W 22:02:16 10° NNW
Cosmos 1833 4.1 21:58:11 46° SSW 21:59:58 85° WNW 22:05:41 10° NNE
SL-08 R/B 4.3 21:59:40 56° S 22:01:04 86° E 22:07:14 10° N
Cosmos 2346 Rocket 4.4 21:56:01 10° NNW 22:02:05 77° W 22:03:32 54° SSW
Cosmos 1536 3.4 22:03:04 55° N 22:03:04 55° N 22:06:14 10° N
Meteor 1-13 Rocket 4.4 21:56:48 10° NNW 22:02:16 63° W 22:03:24 51° SW
Cosmos 2322 Rocket 3.5 21:58:30 10° NW 22:03:25 31° WSW 22:05:04 26° SW
Cosmos 2016 Rocket 4.1 22:02:20 44° SSW 22:04:32 78° W 22:10:57 10° N
Cosmos 1378 Rocket 4.2 22:01:10 10° N 22:04:52 47° NE 22:04:52 47° NE
Cosmos 2221 Rocket 3.9 22:01:07 10° NNW 22:05:33 58° W 22:05:37 58° W
Terra 2.2 22:06:49 52° WSW 22:07:11 53° W 22:11:52 10° NNW
Okean 3 4.4 22:04:28 10° NNW 22:08:32 41° W 22:08:38 41° W
COSMOS 2487 4.3 22:12:29 29° N 22:12:29 29° N 22:14:22 10° NNE
Cosmos 2333 4.1 22:05:42 10° NNW 22:11:32 86° WSW 22:12:06 73° SSE
Cosmos 1666 3.8 22:12:27 42° NW 22:12:27 42° NW 22:15:26 10° N
Cosmos 2360 Rocket 2.7 22:07:24 10° NW 22:12:47 47° WSW 22:13:33 44° SW
USA 234 3.1 22:16:20 59° SE 22:17:42 81° SW 22:24:17 10° NW
Iridium 4 Rocket 4.2 22:18:29 35° W 22:18:44 35° W 22:22:35 10° NNW
Lacrosse 5 4.2 22:19:25 10° W 22:21:01 12° WSW 22:21:01 12° WSW
ATLAS 3B R/B 3.1 22:15:12 10° SW 22:21:41 59° NW 22:28:17 10° NE
MOS 1-B Rocket 3.7 22:17:23 10° NNE 22:23:00 74° ESE 22:23:10 73° ESE
Cosmos 2297 Rocket 4.0 22:32:11 18° ENE 22:32:11 18° ENE 22:34:20 10° NE
Cosmos 1743 4.3 22:35:21 33° N 22:35:21 33° N 22:37:34 10° N
Cosmos 2233 Rocket 3.9 22:34:08 68° SSW 22:35:01 84° W 22:41:24 10° N
Thor Agena Rocket 4.0 22:30:53 10° NNE 22:35:03 52° ENE 22:35:03 52° ENE
Cosmos 1980 4.4 22:30:59 10° NNW 22:36:24 43° NE 22:36:58 42° ENE
COSMOS 2428 2.6 22:34:03 10° NNW 22:39:49 84° WSW 22:39:49 84° WSW
Cosmos 44 Rocket 3.7 22:38:44 10° NW 22:42:56 61° WNW 22:42:56 61° WNW
Cosmos 2237 Rocket 2.8 22:38:45 10° NNW 22:44:11 45° NE 22:44:34 45° ENE
Cosmos 1464 Rocket 4.4 22:46:12 47° E 22:46:12 47° E 22:51:52 10° NNE
Cosmos 1271 Rocket 4.4 22:42:18 10° NNW 22:44:32 32° NNW 22:44:32 32° NNW
NOSS 0 Rocket 3.9 22:45:11 10° NNW 22:51:28 76° ENE 22:51:50 73° E
Geosat 4.2 22:58:12 69° NNW 22:58:12 69° NNW 23:02:38 10° NNW
Cosmos 2333 Rocket 2.7 22:52:05 10° NW 22:57:19 50° W 22:57:19 50° W
Cosmos 1503 Rocket 4.2 22:58:15 73° NNW 22:58:15 73° NNW 23:03:13 10° NNE
Meteor 2-11 Rocket 4.5 23:06:27 66° WSW 23:06:50 68° W 23:12:57 10° N
Cosmos 1513 Rocket 4.5 23:07:08 71° E 23:07:09 71° E 23:13:33 10° NNE
DNEPR-1 R/B 4.4 23:09:08 10° NNW 23:14:42 58° NE 23:14:42 58° NE
Lacrosse 4 Rocket 3.8 23:13:52 17° WNW 23:15:22 20° NW 23:18:27 10° N
ALOS 2 3.7 23:17:00 43° NNW 23:17:00 43° NNW 23:19:58 10° NNW
Cosmos 773 Rocket 4.4 23:13:25 10° NNW 23:17:38 60° NNW 23:17:38 60° NNW
Cosmos 2034 Rocket 4.2 23:19:27 61° E 23:19:27 61° E 23:25:30 10° NNE
Cosmos 1072 Rocket 4.3 23:20:38 87° NNW 23:20:38 87° NNW 23:26:40 10° N
Cosmos 2227 Rocket 3.2 23:22:00 37° ENE 23:22:00 37° ENE 23:25:54 10° NE
Cosmos 1891 Rocket 4.4 23:21:57 87° SSW 23:22:04 89° W 23:28:30 10° N
USA 267 4.3 23:18:58 10° NE 23:25:05 44° NNW 23:31:11 10° W
Cosmos 2219 Rocket 3.4 23:21:53 10° NW 23:26:05 32° W 23:26:05 32° W
Cosmos 1538 Rocket 4.4 23:31:20 10° NNW 23:35:35 59° N 23:35:35 59° N
Cosmos 1607 4.0 23:40:30 10° NW 23:46:59 73° NE 23:47:26 70° E
